Location: *
(41.7492°S, 135.4150°W)
Time: 22:28:50
(UTC+00:00)

ITAMSAT 1 - Pass Details

Date: 03 July 2022
Orbit: 784 x 795 km, 98.9° (Epoch: 09 August)

Event Time Altitude Azimuth Distance (km) Brightness Sun altitude
Rises 14:17:40 0° 73° (ENE) 3,305 12.3 -23.8°
Reaches altitude 10° 14:21:39 10° 103° (ESE) 2,384 11.0 -23.0°
Maximum altitude 14:23:25 12° 123° (ESE) 2,268 10.6 -22.7°
Drops below altitude 10° 14:25:11 10° 143° (SE) 2,391 10.5 -22.4°
Sets 14:29:12 0° 173° (S) 3,328 10.9 -21.7°
